GW2742 Weather Reports


time (UTC)temp
F
wind
direction
speed
knots
gust
knots
rain 1hr
in
rain 24hr
in
rain mn
in
humidity
%
barometer
mb
20260904184029 84 127 2.6 8.7 0.00 0.00 0.00 27 1010.3
20260904183530 84 89 0.9 5.2 0.00 0.00 0.00 22 1010.4
20260904183058 83 120 1.7 5.2 0.00 0.00 0.00 24 1010.7
20260904182526 83 61 1.7 5.2 0.00 0.00 0.00 22 1010.6
20260904182030 83 54 1.7 5.2 0.00 0.00 0.00 22 1010.7
20260904181544 83 42 2.6 5.2 0.00 0.00 0.00 21 1010.8
20260904181025 83 127 2.6 10.4 0.00 0.00 0.00 24 1010.7
20260904180528 83 89 3.5 10.4 0.00 0.00 0.00 22 1010.9
20260904180056 83 121 3.5 9.6 0.00 0.00 0.00 25 1010.9
20260904175525 83 150 2.6 7.8 0.00 0.00 0.00 30 1011.0
20260904175027 82 103 1.7 6.1 0.00 0.00 0.00 28 1011.0
20260904174557 82 96 1.7 4.3 0.00 0.00 0.00 24 1011.0
20260904174027 81 111 1.7 4.3 0.00 0.00 0.00 23 1011.2
20260904173527 81 112 1.7 7.0 0.00 0.00 0.00 27 1011.3
20260904173112 80 118 1.7 7.0 0.00 0.00 0.00 28 1011.3
20260904172532 80 141 3.5 7.0 0.00 0.00 0.00 26 1011.3
20260904172027 80 179 2.6 7.0 0.00 0.00 0.00 29 1011.5
20260904171553 79 91 1.7 7.0 0.00 0.00 0.00 25 1011.3
20260904171024 79 147 2.6 7.8 0.00 0.00 0.00 26 1011.3
20260904170524 79 104 4.3 8.7 0.00 0.00 0.00 24 1011.3
20260904170049 79 72 4.3 8.7 0.00 0.00 0.00 24 1011.4
20260904165524 78 82 3.5 8.7 0.00 0.00 0.00 28 1011.4
20260904165026 78 86 3.5 9.6 0.00 0.00 0.00 31 1011.5
20260904164555 77 158 4.3 9.6 0.00 0.00 0.00 26 1011.5
20260904164027 77 84 4.3 7.8 0.00 0.00 0.00 28 1011.5
20260904163534 77 90 4.3 7.8 0.00 0.00 0.00 29 1011.5
20260904163048 76 91 2.6 7.0 0.00 0.00 0.00 31 1011.5
20260904162529 75 138 3.5 7.0 0.00 0.00 0.00 31 1011.5
20260904162024 74 117 3.5 7.0 0.00 0.00 0.00 32 1011.5
20260904161543 72 0 0.0 2.6 0.00 0.00 0.00 41 1011.5
20260904161025 72 250 0.0 2.6 0.00 0.00 0.00 47 1011.3
20260904160528 71 236 0.9 2.6 0.00 0.00 0.00 44 1011.4
20260904160044 70 221 0.0 1.7 0.00 0.00 0.00 42 1011.4
20260904155525 70 0 0.0 3.5 0.00 0.00 0.00 41 1011.4
20260904155025 70 333 0.9 3.5 0.00 0.00 0.00 44 1011.5
20260904154543 69 335 0.9 3.5 0.00 0.00 0.00 44 1011.4
20260904154025 69 0 0.0 3.5 0.00 0.00 0.00 47 1011.4
20260904153527 68 0 0.0 1.7 0.00 0.00 0.00 45 1011.3
20260904153055 67 217 0.0 2.6 0.00 0.00 0.00 42 1011.4
20260904152525 67 0 0.9 2.6 0.00 0.00 0.00 43 1011.3
20260904152024 66 0 0.0 2.6 0.00 0.00 0.00 42 1011.3
20260904151547 65 252 0.9 2.6 0.00 0.00 0.00 50 1011.3
20260904151028 64 55 0.0 1.7 0.00 0.00 0.00 53 1011.3
20260904150529 63 0 0.0 1.7 0.00 0.00 0.00 47 1011.3
20260904150056 63 94 0.0 1.7 0.00 0.00 0.00 53 1011.4
20260904145527 62 0 0.0 1.7 0.00 0.00 0.00 51 1011.4
20260904145030 61 0 0.0 2.6 0.00 0.00 0.00 60 1011.5
20260904144549 60 0 0.9 2.6 0.00 0.00 0.00 57 1011.5
20260904144028 60 46 0.0 0.9 0.00 0.00 0.00 58 1011.5
20260904143524 59 0 0.0 0.0 0.00 0.00 0.00 59 1011.5
20260904143043 59 0 0.0 1.7 0.00 0.00 0.00 64 1011.6
20260904142525 58 0 0.0 1.7 0.00 0.00 0.00 66 1011.5
20260904142026 57 94 0.0 1.7 0.00 0.00 0.00 66 1011.5
20260904141544 57 0 0.0 0.0 0.00 0.00 0.00 64 1011.5
20260904141025 55 0 0.0 0.0 0.00 0.00 0.00 69 1011.5
20260904140524 54 0 0.0 0.0 0.00 0.00 0.00 69 1011.4
20260904140047 53 0 0.0 2.6 0.00 0.00 0.00 72 1011.4
20260904135527 52 0 0.0 3.5 0.00 0.00 0.00 72 1011.4
20260904135027 51 0 0.9 3.5 0.00 0.00 0.00 71 1011.3
20260904134548 50 216 1.7 3.5 0.00 0.00 0.00 73 1011.3
20260904134025 50 257 1.7 3.5 0.00 0.00 0.00 74 1011.0
20260904133525 49 0 0.0 0.0 0.00 0.00 0.00 76 1011.1
20260904133047 48 0 0.0 0.0 0.00 0.00 0.00 76 1011.0
20260904132525 47 0 0.0 0.0 0.00 0.00 0.00 77 1010.9
20260904132025 47 0 0.0 0.0 0.00 0.00 0.00 78 1011.0
20260904131545 46 0 0.0 0.0 0.00 0.00 0.00 79 1010.8
20260904131026 46 0 0.0 0.0 0.00 0.00 0.00 77 1010.6
20260904130527 46 0 0.0 0.0 0.00 0.00 0.00 77 1010.5
20260904130052 46 0 0.0 0.0 0.00 0.00 0.00 78 1010.6
20260904125529 46 0 0.0 0.0 0.00 0.00 0.00 80 1010.4
20260904125028 46 0 0.0 0.0 0.00 0.00 0.00 81 1010.4
20260904124556 46 0 0.0 0.0 0.00 0.00 0.00 81 1010.3
20260904124023 46 0 0.0 0.0 0.00 0.00 0.00 81 1010.3
20260904123525 46 0 0.0 0.0 0.00 0.00 0.00 80 1010.1
20260904123045 46 0 0.0 0.0 0.00 0.00 0.00 81 1010.1
20260904122524 46 0 0.0 0.0 0.00 0.00 0.00 80 1010.2
20260904122024 46 0 0.0 0.0 0.00 0.00 0.00 80 1010.1
20260904121543 46 0 0.0 0.0 0.00 0.00 0.00 78 1010.0
20260904121024 47 0 0.0 0.0 0.00 0.00 0.00 77 1010.0
20260904120524 47 0 0.0 1.7 0.00 0.00 0.00 77 1009.9
20260904120054 47 0 0.0 1.7 0.00 0.00 0.00 77 1010.0
20260904115528 47 358 0.0 1.7 0.00 0.00 0.00 76 1009.9
20260904115028 48 0 0.0 0.0 0.00 0.00 0.00 76 1009.9
20260904114546 48 0 0.0 0.9 0.00 0.00 0.00 75 1009.8
20260904114028 48 0 0.0 0.9 0.00 0.00 0.00 75 1009.9
20260904113524 48 0 0.0 0.9 0.00 0.00 0.00 75 1009.8
20260904113050 48 0 0.0 0.0 0.00 0.00 0.00 74 1009.7
20260904112525 48 0 0.0 0.9 0.00 0.00 0.00 73 1009.8
20260904112026 48 0 0.0 2.6 0.00 0.00 0.00 73 1009.8
20260904111544 49 0 0.9 2.6 0.00 0.00 0.00 73 1009.7
20260904111024 49 269 1.7 2.6 0.00 0.00 0.00 72 1009.9
20260904110525 49 0 0.9 2.6 0.00 0.00 0.00 72 1009.7
20260904110050 49 0 0.0 3.5 0.00 0.00 0.00 72 1009.8
20260904105527 49 83 0.9 3.5 0.00 0.00 0.00 72 1009.8
20260904105027 49 79 0.0 2.6 0.00 0.00 0.00 72 1009.8
20260904104543 50 0 0.0 2.6 0.00 0.00 0.00 69 1009.7
20260904104026 50 79 0.9 3.5 0.00 0.00 0.00 70 1009.8
20260904103528 50 94 0.0 3.5 0.00 0.00 0.00 71 1009.6
20260904103044 50 94 0.9 3.5 0.00 0.00 0.00 70 1009.7
20260904102523 50 257 0.9 2.6 0.00 0.00 0.00 72 1009.5
20260904102023 50 248 0.9 2.6 0.00 0.00 0.00 71 1009.4
20260904101555 50 248 0.9 2.6 0.00 0.00 0.00 71 1009.4
20260904101028 50 248 0.0 1.7 0.00 0.00 0.00 73 1009.5
20260904100530 50 248 0.0 1.7 0.00 0.00 0.00 72 1009.5
20260904100044 50 0 0.0 1.7 0.00 0.00 0.00 72 1009.5
20260904095527 51 247 0.9 2.6 0.00 0.00 0.00 71 1009.5
20260904095026 51 0 0.0 2.6 0.00 0.00 0.00 70 1009.4
20260904094554 51 248 0.9 2.6 0.00 0.00 0.00 69 1009.4
20260904094024 51 221 0.9 2.6 0.00 0.00 0.00 68 1009.4
20260904093524 51 0 0.0 2.6 0.00 0.00 0.00 70 1009.4
20260904093057 52 220 0.0 2.6 0.00 0.00 0.00 69 1009.4
20260904092528 52 218 0.9 3.5 0.00 0.00 0.00 67 1009.2
20260904092024 51 216 0.9 3.5 0.00 0.00 0.00 69 1009.5
20260904091550 51 176 0.9 2.6 0.00 0.00 0.00 69 1009.5
20260904091028 51 0 0.0 0.0 0.00 0.00 0.00 68 1009.2
20260904090526 52 0 0.0 0.0 0.00 0.00 0.00 70 1009.2
20260904090048 52 0 0.0 0.0 0.00 0.00 0.00 67 1009.2
20260904085526 52 0 0.0 0.0 0.00 0.00 0.00 67 1009.3
20260904085028 52 0 0.0 0.0 0.00 0.00 0.00 67 1009.3
20260904084545 52 0 0.0 0.9 0.00 0.00 0.00 67 1009.3
20260904084025 52 0 0.0 1.7 0.00 0.00 0.00 67 1009.3
20260904083525 52 0 0.0 1.7 0.00 0.00 0.00 67 1009.4
20260904083050 52 0 0.0 1.7 0.00 0.00 0.00 69 1009.5
20260904082527 53 0 0.0 1.7 0.00 0.00 0.00 68 1009.7
20260904082026 53 302 0.0 2.6 0.00 0.00 0.00 68 1009.6
20260904081605 53 0 0.9 2.6 0.00 0.00 0.00 67 1009.6
20260904081024 53 76 0.9 2.6 0.00 0.00 0.00 68 1009.7
20260904080524 53 0 0.0 0.0 0.00 0.00 0.00 67 1009.5
20260904080047 53 0 0.0 0.0 0.00 0.00 0.00 66 1009.7
20260904075525 54 0 0.0 0.0 0.00 0.00 0.00 66 1009.7
20260904075026 54 0 0.0 0.0 0.00 0.00 0.00 67 1009.8
20260904074606 54 0 0.0 0.0 0.00 0.00 0.00 66 1009.8
20260904074024 54 0 0.0 0.0 0.00 0.00 0.00 66 1009.7
20260904073527 55 0 0.0 0.0 0.00 0.00 0.00 65 1009.8
20260904073102 55 0 0.0 0.0 0.00 0.00 0.00 63 1009.7
20260904072527 56 0 0.0 0.0 0.00 0.00 0.00 62 1009.7
20260904072026 56 0 0.0 0.0 0.00 0.00 0.00 62 1009.8
20260904071544 56 0 0.0 0.0 0.00 0.00 0.00 60 1009.8
20260904071026 56 0 0.0 0.0 0.00 0.00 0.00 61 1009.9
20260904070528 56 0 0.0 0.0 0.00 0.00 0.00 60 1009.7
20260904070053 56 0 0.0 0.0 0.00 0.00 0.00 61 1009.8
20260904065524 57 0 0.0 1.7 0.00 0.00 0.00 59 1009.9
20260904065024 57 0 0.0 2.6 0.00 0.00 0.00 60 1009.8
20260904064551 57 195 0.9 2.6 0.00 0.00 0.00 60 1009.8
20260904064025 57 196 0.9 2.6 0.00 0.00 0.00 60 1009.7
20260904063527 58 0 0.0 1.7 0.00 0.00 0.00 59 1009.7
20260904063054 58 0 0.9 1.7 0.00 0.00 0.00 58 1009.7
20260904062527 58 0 0.0 1.7 0.00 0.00 0.00 57 1009.6
20260904062026 59 0 0.0 1.7 0.00 0.00 0.00 57 1009.8
20260904061543 59 0 0.0 2.6 0.00 0.00 0.00 57 1009.7
20260904061028 59 0 0.0 2.6 0.00 0.00 0.00 56 1009.8
20260904060526 60 192 1.7 2.6 0.00 0.00 0.00 56 1009.6
20260904060056 60 0 0.0 2.6 0.00 0.00 0.00 54 1009.5
20260904055524 60 231 0.9 2.6 0.00 0.00 0.00 54 1009.6
20260904055024 60 221 0.0 2.6 0.00 0.00 0.00 56 1009.7
20260904054548 61 0 0.9 2.6 0.00 0.00 0.00 55 1009.7
20260904054025 61 221 0.0 3.5 0.00 0.00 0.00 55 1009.7
20260904053525 61 221 0.0 3.5 0.00 0.00 0.00 54 1009.8
20260904053045 61 203 0.9 2.6 0.00 0.00 0.00 55 1009.8
20260904052525 61 199 0.0 1.7 0.00 0.00 0.00 54 1009.8
20260904052025 61 199 0.0 4.3 0.00 0.00 0.00 53 1009.8
20260904051545 61 0 0.0 4.3 0.00 0.00 0.00 52 1009.8
20260904051025 62 204 1.7 4.3 0.00 0.00 0.00 53 1009.9
20260904050525 62 212 1.7 3.5 0.00 0.00 0.00 51 1009.8
20260904050045 62 191 0.9 3.5 0.00 0.00 0.00 52 1009.8
20260904045525 63 195 1.7 3.5 0.00 0.00 0.00 49 1009.8
20260904045027 63 0 0.0 1.7 0.00 0.00 0.00 44 1009.8
20260904044548 63 0 0.9 1.7 0.00 0.00 0.00 43 1009.8
20260904044031 63 0 0.0 2.6 0.00 0.00 0.00 46 1009.9
20260904043527 63 200 0.0 2.6 0.00 0.00 0.00 47 1009.9
20260904043057 62 200 0.9 2.6 0.00 0.00 0.00 48 1010.0
20260904042530 63 193 0.9 1.7 0.00 0.00 0.00 56 1010.0
20260904042026 63 0 0.0 1.7 0.00 0.00 0.00 53 1010.0
20260904041543 63 193 0.0 1.7 0.00 0.00 0.00 53 1010.1
20260904041025 63 193 0.0 1.7 0.00 0.00 0.00 51 1010.0
20260904040524 63 193 0.9 1.7 0.00 0.00 0.00 48 1010.1
20260904040045 63 193 0.0 1.7 0.00 0.00 0.00 47 1010.0
20260904035526 63 0 0.0 1.7 0.00 0.00 0.00 46 1010.0
20260904035024 63 0 0.0 0.9 0.00 0.00 0.00 48 1009.9
20260904034550 63 0 0.0 0.9 0.00 0.00 0.00 43 1010.0
20260904034024 64 0 0.0 0.9 0.00 0.00 0.00 48 1010.1
20260904033529 64 0 0.0 1.7 0.00 0.00 0.00 44 1010.1
20260904033051 64 0 0.0 2.6 0.00 0.00 0.00 44 1010.1
20260904032530 64 193 0.0 2.6 0.00 0.00 0.00 43 1010.0
20260904032026 64 193 0.0 0.9 0.00 0.00 0.00 45 1010.2
20260904031546 65 0 0.0 0.0 0.00 0.00 0.00 44 1010.0
20260904031024 65 0 0.0 0.0 0.00 0.00 0.00 36 1009.9
20260904030526 65 0 0.0 0.0 0.00 0.00 0.00 37 1010.0
20260904030044 65 0 0.0 0.0 0.00 0.00 0.00 37 1009.8
20260904025525 66 0 0.0 0.0 0.00 0.00 0.00 38 1009.7
20260904025025 66 0 0.0 0.0 0.00 0.00 0.00 42 1009.7
20260904024546 66 0 0.0 0.0 0.00 0.00 0.00 39 1009.7
20260904024025 67 0 0.0 0.0 0.00 0.00 0.00 37 1009.4
20260904023525 67 0 0.0 0.0 0.00 0.00 0.00 36 1009.4
20260904023054 68 0 0.0 0.0 0.00 0.00 0.00 37 1009.2
20260904022525 68 0 0.0 0.0 0.00 0.00 0.00 37 1009.2
20260904022026 68 0 0.0 0.0 0.00 0.00 0.00 38 1009.1
20260904021555 69 0 0.0 0.0 0.00 0.00 0.00 38 1009.3
20260904021025 69 0 0.0 0.0 0.00 0.00 0.00 39 1009.2
20260904020525 70 0 0.0 0.0 0.00 0.00 0.00 41 1009.1
20260904020045 70 0 0.0 0.0 0.00 0.00 0.00 36 1009.1
20260904015524 71 0 0.0 1.7 0.00 0.00 0.00 36 1009.1
20260904015024 71 0 0.0 1.7 0.00 0.00 0.00 38 1009.1
20260904014619 72 0 0.0 1.7 0.00 0.00 0.00 37 1009.1
20260904014025 72 0 0.0 0.0 0.00 0.00 0.00 36 1009.0
20260904013526 73 0 0.0 0.0 0.00 0.00 0.00 35 1009.1
20260904013058 74 0 0.0 0.9 0.00 0.00 0.00 37 1009.0
20260904012526 75 0 0.0 0.9 0.00 0.00 0.00 38 1009.0
20260904012027 76 0 0.0 0.9 0.00 0.00 0.00 33 1009.1
20260904011546 77 0 0.0 0.9 0.00 0.00 0.00 33 1008.9
20260904011024 78 42 0.0 0.9 0.00 0.00 0.00 31 1009.1
20260904010524 79 42 0.0 2.6 0.00 0.00 0.00 29 1009.1
20260904010046 80 0 0.0 2.6 0.00 0.00 0.00 29 1009.1
20260904005527 81 49 0.9 4.3 0.00 0.00 0.00 28 1009.1
20260904005024 81 0 0.0 4.3 0.00 0.00 0.00 29 1009.1
20260904004550 81 41 1.7 4.3 0.00 0.00 0.00 26 1009.1
20260904004027 81 46 0.9 2.6 0.00 0.00 0.00 26 1009.1
20260904003526 81 51 0.0 2.6 0.00 0.00 0.00 26 1009.1
20260904003045 81 0 0.0 2.6 0.00 0.00 0.00 27 1009.1
20260904002526 81 41 0.0 2.6 0.00 0.00 0.00 25 1009.1
20260904002025 82 342 0.0 5.2 0.00 0.00 0.00 32 1009.1
20260904001542 82 30 0.9 5.2 0.00 0.00 0.00 26 1009.1
20260904001024 82 46 0.9 7.0 0.00 0.00 0.00 26 1009.2
20260904000525 82 37 3.5 7.0 0.00 0.00 0.00 22 1009.2
20260903235529 83 56 1.7 6.1 0.00 0.00 0.00 23 1009.2
20260903235024 83 72 2.6 4.3 0.00 0.00 0.00 22 1009.2
20260903234552 83 136 1.7 4.3 0.00 0.00 0.00 23 1009.3
20260903234025 83 0 0.0 3.5 0.00 0.00 0.00 23 1009.3
20260903233525 83 331 0.9 4.3 0.00 0.00 0.00 23 1009.2
20260903233045 84 307 1.7 4.3 0.00 0.00 0.00 18 1009.3
20260903232528 84 290 0.9 4.3 0.00 0.00 0.00 19 1009.4
20260903232025 84 281 0.9 4.3 0.00 0.00 0.00 25 1009.4
20260903231548 84 260 0.9 6.1 0.00 0.00 0.00 23 1009.4
20260903231024 84 215 0.9 6.1 0.00 0.00 0.00 25 1009.5
20260903230527 84 209 1.7 6.1 0.00 0.00 0.00 24 1009.5
20260903230044 84 15 0.9 2.6 0.00 0.00 0.00 19 1009.4
20260903225524 83 0 0.0 7.8 0.00 0.00 0.00 22 1009.5
20260903225026 83 275 1.7 7.8 0.00 0.00 0.00 21 1009.5
20260903224554 83 147 3.5 7.8 0.00 0.00 0.00 25 1009.5
20260903224024 84 174 2.6 6.1 0.00 0.00 0.00 22 1009.5
20260903223525 83 0 0.0 5.2 0.00 0.00 0.00 20 1009.5
20260903223043 83 94 0.9 9.6 0.00 0.00 0.00 25 1009.5
20260903222525 83 212 2.6 9.6 0.00 0.00 0.00 22 1009.7
20260903222025 83 157 4.3 9.6 0.00 0.00 0.00 20 1009.5
20260903221550 82 89 2.6 7.8 0.00 0.00 0.00 23 1009.5
20260903221024 82 58 4.3 7.8 0.00 0.00 0.00 22 1009.6
20260903220524 82 77 1.7 10.4 0.00 0.00 0.00 22 1009.7
20260903220105 82 160 2.6 10.4 0.00 0.00 0.00 21 1009.7
20260903215525 82 93 5.2 10.4 0.00 0.00 0.00 22 1009.8
20260903215024 82 237 3.5 7.8 0.00 0.00 0.00 25 1009.8
20260903214551 83 147 3.5 7.8 0.00 0.00 0.00 21 1009.8
20260903214028 83 157 2.6 6.1 0.00 0.00 0.00 26 1009.8
20260903213529 83 210 3.5 6.1 0.00 0.00 0.00 23 1009.8
20260903213048 83 212 1.7 5.2 0.00 0.00 0.00 23 1009.8
20260903212523 83 71 0.0 5.2 0.00 0.00 0.00 25 1009.8
20260903212023 83 201 2.6 7.0 0.00 0.00 0.00 26 1009.8
20260903211544 83 188 2.6 7.0 0.00 0.00 0.00 21 1009.8
20260903211024 83 245 0.9 6.1 0.00 0.00 0.00 31 1009.9
20260903210525 82 205 0.9 6.1 0.00 0.00 0.00 27 1009.7
20260903210049 82 225 2.6 7.8 0.00 0.00 0.00 22 1009.8
20260903205525 82 201 4.3 7.8 0.00 0.00 0.00 26 1010.0
20260903205026 82 150 2.6 10.4 0.00 0.00 0.00 21 1009.8
20260903204545 82 268 1.7 12.2 0.00 0.00 0.00 23 1010.0
20260903204024 81 278 4.3 12.2 0.00 0.00 0.00 22 1010.0
20260903203525 82 188 6.1 10.4 0.00 0.00 0.00 26 1009.9
20260903203045 82 169 3.5 7.0 0.00 0.00 0.00 26 1010.0
20260903202523 82 95 3.5 8.7 0.00 0.00 0.00 26 1010.0
20260903202025 81 119 1.7 8.7 0.00 0.00 0.00 27 1010.1
20260903201544 81 155 1.7 6.1 0.00 0.00 0.00 23 1010.1
20260903201023 81 180 3.5 11.3 0.00 0.00 0.00 27 1010.3
20260903200527 81 202 3.5 11.3 0.00 0.00 0.00 26 1010.3
20260903200051 81 33 4.3 10.4 0.00 0.00 0.00 28 1010.3
20260903195525 80 15 2.6 8.7 0.00 0.00 0.00 25 1010.3
20260903195029 80 28 1.7 8.7 0.00 0.00 0.00 25 1010.5
20260903194552 80 92 3.5 8.7 0.00 0.00 0.00 24 1010.6
20260903194026 79 102 3.5 7.0 0.00 0.00 0.00 26 1010.6
20260903193529 79 351 3.5 7.8 0.00 0.00 0.00 24 1010.7
20260903193050 79 1 4.3 7.8 0.00 0.00 0.00 25 1010.7
20260903192524 79 68 3.5 9.6 0.00 0.00 0.00 24 1010.7
20260903192025 79 51 5.2 9.6 0.00 0.00 0.00 26 1010.8
20260903191547 78 336 2.6 8.7 0.00 0.00 0.00 28 1010.9
20260903191029 78 20 4.3 8.7 0.00 0.00 0.00 26 1010.9
20260903190524 78 46 4.3 8.7 0.00 0.00 0.00 28 1010.7
20260903190058 78 63 5.2 8.7 0.00 0.00 0.00 26 1010.9
20260903185524 78 45 2.6 7.0 0.00 0.00 0.00 31 1010.8
20260903185025 78 33 2.6 7.0 0.00 0.00 0.00 34 1011.0
20260903184544 79 72 4.3 7.0 0.00 0.00 0.00 28 1011.1